EW6133 Weather Reports


time (UTC)temp
C
wind
direction
speed
KPH
gust
KPH
rain 1hr
cm
rain 24hr
cm
rain mn
cm
humidity
%
barometer
mb
20260509111403 20 277 1.6 8.0 0.00 0.00 0.00 45 1017.2
20260509111146 20 88 1.6 8.0 0.00 0.00 0.00 45 1017.3
20260509110402 20 252 1.6 8.0 0.00 0.00 0.00 45 1017.3
20260509105906 20 32 1.6 6.4 0.00 0.00 0.00 46 1017.3
20260509105402 20 179 1.6 6.4 0.00 0.00 0.00 46 1017.4
20260509104903 20 144 1.6 8.0 0.00 0.00 0.00 45 1017.5
20260509104402 20 49 1.6 8.0 0.00 0.00 0.00 45 1017.5
20260509103904 20 138 1.6 8.0 0.00 0.00 0.00 46 1017.6
20260509103402 20 28 1.6 9.7 0.00 0.00 0.00 46 1017.6
20260509102903 20 114 1.6 9.7 0.00 0.00 0.00 45 1017.8
20260509102404 20 20 1.6 9.7 0.00 0.00 0.00 46 1017.6
20260509101902 20 69 1.6 9.7 0.00 0.00 0.00 46 1017.7
20260509101403 19 119 1.6 6.4 0.00 0.00 0.00 48 1017.8
20260509100902 19 21 3.2 11.3 0.00 0.00 0.00 48 1017.8
20260509100403 18 114 1.6 11.3 0.00 0.00 0.00 48 1017.8
20260509095901 18 19 1.6 11.3 0.00 0.00 0.00 48 1017.7
20260509095404 18 214 1.6 11.3 0.00 0.00 0.00 48 1017.7
20260509094902 18 78 1.6 4.8 0.00 0.00 0.00 48 1017.7
20260509094404 18 276 1.6 9.7 0.00 0.00 0.00 49 1017.7
20260509093905 18 164 1.6 9.7 0.00 0.00 0.00 48 1017.8
20260509093403 18 258 1.6 4.8 0.00 0.00 0.00 51 1017.8
20260509092901 18 169 3.2 8.0 0.00 0.00 0.00 51 1017.9
20260509092402 18 340 1.6 8.0 0.00 0.00 0.00 50 1017.8
20260509091902 18 252 1.6 9.7 0.00 0.00 0.00 51 1017.8
20260509091403 18 75 1.6 9.7 0.00 0.00 0.00 53 1017.9
20260509090903 18 63 1.6 9.7 0.00 0.00 0.00 53 1017.9
20260509090403 18 84 3.2 9.7 0.00 0.00 0.00 53 1017.9
20260509085903 17 355 1.6 4.8 0.00 0.00 0.00 54 1017.9
20260509085402 17 242 1.6 4.8 0.00 0.00 0.00 57 1017.9
20260509084903 17 148 1.6 6.4 0.00 0.00 0.00 57 1017.9
20260509084403 17 196 1.6 6.4 0.00 0.00 0.00 57 1017.9
20260509084141 17 30 1.6 6.4 0.00 0.00 0.00 58 1017.9
20260509083405 17 355 1.6 8.0 0.00 0.00 0.00 59 1017.9
20260509082904 16 322 1.6 8.0 0.00 0.00 0.00 58 1017.9
20260509082402 16 38 1.6 9.7 0.00 0.00 0.00 59 1017.9
20260509081856 16 86 1.6 9.7 0.00 0.00 0.00 59 1017.9
20260509081349 16 137 1.6 6.4 0.00 0.00 0.00 60 1017.8
20260509080844 16 87 1.6 4.8 0.00 0.00 0.00 61 1017.9
20260509080338 15 51 1.6 6.4 0.00 0.00 0.00 64 1017.8
20260509075837 15 19 1.6 6.4 0.00 0.00 0.00 65 1017.9
20260509075334 15 36 1.6 4.8 0.00 0.00 0.00 68 1017.9
20260509074834 15 53 1.6 4.8 0.00 0.00 0.00 69 1017.9
20260509074611 14 334 1.6 6.4 0.00 0.00 0.00 71 1017.9
20260509074109 14 322 1.6 6.4 0.00 0.00 0.00 72 1017.9
20260509073330 13 346 1.6 4.8 0.00 0.00 0.00 73 1017.8
20260509072831 13 88 0.0 4.8 0.00 0.00 0.00 76 1017.8
20260509072325 13 110 0.0 4.8 0.00 0.00 0.00 77 1017.9
20260509071828 12 117 0.0 3.2 0.00 0.00 0.00 79 1017.9
20260509071329 12 78 0.0 1.6 0.00 0.00 0.00 81 1017.9
20260509070828 12 37 0.0 1.6 0.00 0.00 0.00 82 1017.9
20260509070324 11 37 0.0 1.6 0.00 0.00 0.00 83 1017.9
20260509065825 11 37 0.0 1.6 0.00 0.00 0.00 85 1017.8
20260509065341 10 37 0.0 3.2 0.00 0.00 0.00 88 1017.8
20260509065333 11 37 0.0 3.2 0.00 0.00 0.00 86 1017.8
20260509064323 10 18 0.0 1.6 0.00 0.00 0.00 90 1017.7
20260509063823 9 18 0.0 3.2 0.00 0.00 0.00 91 1017.8
20260509063323 9 18 0.0 3.2 0.00 0.00 0.00 93 1017.9
20260509062822 8 18 0.0 1.6 0.00 0.00 0.00 93 1017.9
20260509062324 8 18 0.0 0.0 0.00 0.00 0.00 94 1017.9
20260509062057 7 18 0.0 0.0 0.00 0.00 0.00 94 1017.9
20260509061318 7 18 0.0 0.0 0.00 0.00 0.00 94 1017.8
20260509060820 7 18 0.0 0.0 0.00 0.00 0.00 94 1017.8
20260509060319 6 18 0.0 0.0 0.00 0.00 0.00 94 1017.8
20260509055817 6 18 0.0 0.0 0.00 0.00 0.00 93 1017.8
20260509055556 6 18 0.0 0.0 0.00 0.00 0.00 93 1017.7
20260509054817 6 18 0.0 0.0 0.00 0.00 0.00 93 1017.7
20260509054334 5 18 0.0 0.0 0.00 0.00 0.00 93 1017.7
20260509054326 5 18 0.0 0.0 0.00 0.00 0.00 93 1017.6
20260509053607 5 18 0.0 0.0 0.00 0.00 0.00 93 1017.8
20260509053603 5 18 0.0 0.0 0.00 0.00 0.00 93 1017.8
20260509052311 5 18 0.0 0.0 0.00 0.00 0.00 93 1017.7
20260509051810 5 18 0.0 0.0 0.00 0.00 0.00 93 1017.7
20260509051310 5 18 0.0 0.0 0.00 0.00 0.00 93 1017.6
20260509050810 5 47 0.0 0.0 0.00 0.00 0.00 93 1017.6
20260509050548 5 47 0.0 0.0 0.00 0.00 0.00 92 1017.6
20260509045810 5 47 0.0 0.0 0.00 0.00 0.00 92 1017.5
20260509045311 5 47 0.0 0.0 0.00 0.00 0.00 92 1017.6
20260509044811 5 47 0.0 0.0 0.00 0.00 0.00 92 1017.6
20260509044310 5 47 0.0 0.0 0.00 0.00 0.00 92 1017.6
20260509043811 5 47 0.0 0.0 0.00 0.00 0.00 92 1017.6
20260509043310 5 47 0.0 0.0 0.00 0.00 0.00 92 1017.5
20260509042813 5 47 0.0 0.0 0.00 0.00 0.00 92 1017.6
20260509042312 5 47 0.0 0.0 0.00 0.00 0.00 92 1017.5
20260509041811 5 47 0.0 0.0 0.00 0.00 0.00 92 1017.6
20260509041310 5 47 0.0 0.0 0.00 0.00 0.00 91 1017.6
20260509040811 5 47 0.0 0.0 0.00 0.00 0.00 91 1017.5
20260509040309 5 47 0.0 0.0 0.00 0.00 0.00 91 1017.6
20260509035809 5 47 0.0 0.0 0.00 0.00 0.00 91 1017.6
20260509035306 5 47 0.0 0.0 0.00 0.00 0.00 91 1017.6
20260509035044 5 47 0.0 0.0 0.00 0.00 0.00 91 1017.6
20260509034305 5 47 0.0 0.0 0.00 0.00 0.00 91 1017.6
20260509033803 5 47 0.0 0.0 0.00 0.00 0.00 91 1017.6
20260509033542 5 47 0.0 0.0 0.00 0.00 0.00 91 1017.5
20260509032803 5 47 0.0 0.0 0.00 0.00 0.00 91 1017.5
20260509032306 5 47 0.0 0.0 0.00 0.00 0.00 91 1017.5
20260509031804 5 47 0.0 0.0 0.00 0.00 0.00 92 1017.5
20260509031544 5 47 0.0 0.0 0.00 0.00 0.00 91 1017.6
20260509030802 5 47 0.0 0.0 0.00 0.00 0.00 91 1017.6
20260509030302 5 47 0.0 0.0 0.00 0.00 0.00 91 1017.6
20260509030041 5 47 0.0 0.0 0.00 0.00 0.00 91 1017.6
20260509025307 6 47 0.0 0.0 0.00 0.00 0.00 91 1017.7
20260509024803 6 47 0.0 0.0 0.00 0.00 0.00 91 1017.8
20260509024304 6 47 0.0 0.0 0.00 0.00 0.00 91 1017.7
20260509023801 6 47 0.0 0.0 0.00 0.00 0.00 91 1017.8
20260509023302 6 47 0.0 0.0 0.00 0.00 0.00 91 1017.8
20260509023042 6 47 0.0 0.0 0.00 0.00 0.00 90 1017.8
20260509022306 6 47 0.0 0.0 0.00 0.00 0.00 90 1017.8
20260509021803 6 47 0.0 0.0 0.00 0.00 0.00 90 1017.8
20260509021542 6 47 0.0 0.0 0.00 0.00 0.00 91 1017.8
20260509020803 6 47 0.0 0.0 0.00 0.00 0.00 90 1017.8
20260509020304 6 47 0.0 0.0 0.00 0.00 0.00 90 1017.8
20260509015805 6 47 0.0 0.0 0.00 0.00 0.00 90 1017.8
20260509015306 6 47 0.0 0.0 0.00 0.00 0.00 90 1017.8
20260509015040 6 47 0.0 0.0 0.00 0.00 0.00 90 1017.7
20260509014539 6 47 0.0 0.0 0.00 0.00 0.00 89 1017.8
20260509013803 6 47 0.0 0.0 0.00 0.00 0.00 89 1017.8
20260509013544 6 47 0.0 0.0 0.00 0.00 0.00 89 1017.8
20260509012802 6 47 0.0 0.0 0.00 0.00 0.00 89 1017.8
20260509012540 7 47 0.0 0.0 0.00 0.00 0.00 90 1017.9
20260509012040 7 47 0.0 0.0 0.00 0.00 0.00 90 1017.8
20260509011541 7 47 0.0 0.0 0.00 0.00 0.00 90 1017.8
20260509010818 7 47 0.0 0.0 0.00 0.00 0.00 90 1017.9
20260509010812 7 47 0.0 0.0 0.00 0.00 0.00 90 1017.8
20260509010037 7 47 0.0 0.0 0.00 0.00 0.00 89 1017.9
20260509005306 7 47 0.0 0.0 0.00 0.00 0.00 89 1017.8
20260509004803 7 47 0.0 0.0 0.00 0.00 0.00 89 1017.8
20260509004305 7 47 0.0 0.0 0.00 0.00 0.00 89 1017.8
20260509003803 7 47 0.0 0.0 0.00 0.00 0.00 88 1017.9
20260509003304 7 47 0.0 0.0 0.00 0.00 0.00 88 1017.9
20260509002803 7 47 0.0 0.0 0.00 0.00 0.00 88 1017.8
20260509002306 7 47 0.0 0.0 0.00 0.00 0.00 88 1017.8
20260509001805 7 47 0.0 0.0 0.00 0.00 0.00 88 1017.8
20260509001303 7 47 0.0 0.0 0.00 0.00 0.00 87 1017.8
20260509000802 7 47 0.0 0.0 0.00 0.00 0.00 87 1017.9
20260509000304 8 47 0.0 0.0 0.00 0.00 0.00 87 1017.9
20260508235802 8 47 0.0 0.0 0.00 0.00 0.00 87 1017.9
20260508235306 8 47 0.0 0.0 0.00 0.00 0.00 87 1017.9
20260508234803 8 47 0.0 0.0 0.00 0.00 0.00 87 1018.0
20260508234303 8 47 0.0 0.0 0.00 0.00 0.00 87 1018.0
20260508233802 8 47 0.0 0.0 0.00 0.00 0.00 86 1018.0
20260508233303 8 47 0.0 0.0 0.00 0.00 0.00 86 1018.0
20260508232803 8 47 0.0 0.0 0.00 0.00 0.00 86 1017.9
20260508232306 8 47 0.0 0.0 0.00 0.00 0.00 86 1018.0
20260508231803 8 47 0.0 0.0 0.00 0.00 0.00 86 1018.0
20260508231303 8 47 0.0 0.0 0.00 0.00 0.00 85 1018.0
20260508230802 8 47 0.0 0.0 0.00 0.00 0.00 85 1018.0
20260508230303 8 47 0.0 0.0 0.00 0.00 0.00 85 1018.0
20260508225804 8 47 0.0 0.0 0.00 0.00 0.00 85 1018.0
20260508225306 8 47 0.0 0.0 0.00 0.00 0.00 84 1017.9
20260508224809 8 47 0.0 0.0 0.00 0.00 0.00 84 1017.9
20260508224803 8 47 0.0 0.0 0.00 0.00 0.00 84 1017.9
20260508223804 9 47 0.0 0.0 0.00 0.00 0.00 83 1017.9
20260508223526 9 47 0.0 0.0 0.00 0.00 0.00 82 1017.9
20260508222801 9 47 0.0 0.0 0.00 0.00 0.00 82 1017.9
20260508222306 9 47 0.0 0.0 0.00 0.00 0.00 82 1017.9
20260508221801 9 47 0.0 0.0 0.00 0.00 0.00 81 1017.9
20260508221255 10 47 0.0 0.0 0.00 0.00 0.00 81 1017.9
20260508220753 10 47 0.0 0.0 0.00 0.00 0.00 81 1017.9
20260508220249 10 47 0.0 0.0 0.00 0.00 0.00 80 1017.9
20260508220029 10 47 0.0 0.0 0.00 0.00 0.00 80 1017.9
20260508215525 10 47 0.0 0.0 0.00 0.00 0.00 80 1017.9
20260508214747 10 47 0.0 0.0 0.00 0.00 0.00 80 1018.0
20260508214245 10 47 0.0 0.0 0.00 0.00 0.00 79 1017.9
20260508213746 10 47 0.0 0.0 0.00 0.00 0.00 78 1018.0
20260508213244 10 47 0.0 0.0 0.00 0.00 0.00 78 1017.9
20260508212745 10 47 0.0 0.0 0.00 0.00 0.00 77 1017.9
20260508212543 11 47 0.0 0.0 0.00 0.00 0.00 76 1017.8
20260508212538 11 47 0.0 0.0 0.00 0.00 0.00 77 1017.8
20260508211244 11 47 0.0 0.0 0.00 0.00 0.00 75 1017.7
20260508210741 11 47 0.0 0.0 0.00 0.00 0.00 75 1017.6
20260508210244 11 47 0.0 0.0 0.00 0.00 0.00 74 1017.6
20260508210016 11 47 0.0 0.0 0.00 0.00 0.00 73 1017.6
20260508205239 11 47 0.0 0.0 0.00 0.00 0.00 73 1017.5
20260508204739 12 47 0.0 1.6 0.00 0.00 0.00 72 1017.5
20260508204242 12 47 0.0 3.2 0.00 0.00 0.00 72 1017.5
20260508203739 12 47 0.0 3.2 0.00 0.00 0.00 72 1017.6
20260508203237 12 98 0.0 3.2 0.00 0.00 0.00 71 1017.5
20260508202740 12 101 0.0 3.2 0.00 0.00 0.00 70 1017.5
20260508202239 12 78 0.0 1.6 0.00 0.00 0.00 70 1017.4
20260508201739 12 78 0.0 1.6 0.00 0.00 0.00 69 1017.3
20260508201237 13 78 0.0 4.8 0.00 0.00 0.00 69 1017.3
20260508201016 13 80 0.0 4.8 0.00 0.00 0.00 68 1017.2
20260508200238 13 306 0.0 3.2 0.00 0.00 0.00 67 1017.2
20260508195740 13 120 0.0 3.2 0.00 0.00 0.00 67 1017.2
20260508195239 13 35 0.0 3.2 0.00 0.00 0.00 66 1017.1
20260508194740 13 62 0.0 3.2 0.00 0.00 0.00 66 1017.1
20260508194516 13 92 0.0 4.8 0.00 0.00 0.00 65 1016.9
20260508193739 14 342 0.0 4.8 0.00 0.00 0.00 65 1016.9
20260508193236 14 84 0.0 3.2 0.00 0.00 0.00 64 1016.9
20260508192735 14 349 0.0 3.2 0.00 0.00 0.00 64 1016.9
20260508192231 14 53 0.0 3.2 0.00 0.00 0.00 64 1016.7
20260508191732 15 0 0.0 3.2 0.00 0.00 0.00 63 1016.7
20260508191231 15 5 0.0 4.8 0.00 0.00 0.00 63 1016.5
20260508191009 15 5 0.0 4.8 0.00 0.00 0.00 62 1016.5
20260508190231 15 57 0.0 4.8 0.00 0.00 0.00 62 1016.5
20260508185731 15 107 0.0 3.2 0.00 0.00 0.00 61 1016.4
20260508185233 15 135 0.0 4.8 0.00 0.00 0.00 61 1016.4
20260508184732 15 55 0.0 4.8 0.00 0.00 0.00 60 1016.3
20260508184516 15 172 1.6 8.0 0.00 0.00 0.00 60 1016.2
20260508184015 15 124 1.6 8.0 0.00 0.00 0.00 59 1016.2
20260508183231 16 174 1.6 6.4 0.00 0.00 0.00 59 1016.1
20260508182732 16 0 1.6 8.0 0.00 0.00 0.00 59 1016.1
20260508182232 16 103 1.6 8.0 0.00 0.00 0.00 58 1016.1
20260508181734 16 348 1.6 9.7 0.00 0.00 0.00 58 1016.1
20260508181254 16 159 1.6 6.4 0.00 0.00 0.00 58 1016.0
20260508181246 16 118 1.6 9.7 0.00 0.00 0.00 58 1016.1
20260508180224 16 71 1.6 6.4 0.00 0.00 0.00 57 1016.1
20260508175719 16 9 1.6 6.4 0.00 0.00 0.00 57 1016.0
20260508175212 16 153 1.6 8.0 0.00 0.00 0.00 56 1016.0
20260508174710 16 105 1.6 8.0 0.00 0.00 0.00 56 1016.0
20260508174210 16 17 1.6 8.0 0.00 0.00 0.00 57 1016.0
20260508173709 17 140 1.6 8.0 0.00 0.00 0.00 56 1015.9
20260508173209 17 65 1.6 4.8 0.00 0.00 0.00 57 1015.9
20260508172711 17 46 1.6 8.0 0.00 0.00 0.00 57 1015.9
20260508172209 17 258 0.0 8.0 0.00 0.00 0.00 56 1015.9
20260508171707 17 279 0.0 4.8 0.00 0.00 0.00 57 1015.9
20260508171207 17 94 1.6 11.3 0.00 0.00 0.00 56 1015.9
20260508170704 17 51 1.6 11.3 0.00 0.00 0.00 56 1015.9
20260508170202 17 341 1.6 11.3 0.00 0.00 0.00 57 1015.8
20260508165704 17 303 1.6 6.4 0.00 0.00 0.00 56 1015.8
20260508165204 17 121 1.6 4.8 0.00 0.00 0.00 55 1015.8
20260508164702 17 66 1.6 6.4 0.00 0.00 0.00 55 1015.7
20260508164205 17 312 1.6 6.4 0.00 0.00 0.00 53 1015.7
20260508163704 17 0 1.6 4.8 0.00 0.00 0.00 53 1015.6
20260508163207 17 20 0.0 4.8 0.00 0.00 0.00 52 1015.6
20260508162703 17 78 0.0 4.8 0.00 0.00 0.00 53 1015.6
20260508162204 17 125 1.6 6.4 0.00 0.00 0.00 53 1015.5
20260508161701 17 73 1.6 6.4 0.00 0.00 0.00 52 1015.6
20260508161154 17 44 0.0 3.2 0.00 0.00 0.00 53 1015.6
20260508160648 17 12 1.6 4.8 0.00 0.00 0.00 52 1015.7
20260508160142 17 63 0.0 4.8 0.00 0.00 0.00 51 1015.7
20260508155643 17 215 0.0 3.2 0.00 0.00 0.00 52 1015.7
20260508155425 17 40 0.0 3.2 0.00 0.00 0.00 52 1015.8
20260508154642 17 40 1.6 4.8 0.00 0.00 0.00 52 1015.8
20260508154418 17 123 1.6 6.4 0.00 0.00 0.00 51 1015.7
20260508153639 17 182 1.6 11.3 0.00 0.00 0.00 51 1015.7
20260508153234 17 100 1.6 4.8 0.00 0.00 0.00 52 1015.7
20260508153217 17 92 1.6 11.3 0.00 0.00 0.00 51 1015.7
20260508152939 17 50 1.6 4.8 0.00 0.00 0.00 51 1015.7
20260508151638 17 258 0.0 4.8 0.00 0.00 0.00 52 1015.8
20260508151141 17 213 0.0 6.4 0.00 0.00 0.00 52 1015.8
20260508150639 17 43 1.6 4.8 0.00 0.00 0.00 52 1015.9
20260508150138 17 196 1.6 4.8 0.00 0.00 0.00 51 1015.9
20260508145639 17 169 0.0 3.2 0.00 0.00 0.00 51 1015.9
20260508145138 17 169 0.0 3.2 0.00 0.00 0.00 49 1015.8
20260508144916 17 143 0.0 4.8 0.00 0.00 0.00 51 1015.8
20260508144137 17 322 1.6 4.8 0.00 0.00 0.00 51 1015.8
20260508143631 17 118 1.6 4.8 0.00 0.00 0.00 52 1015.8
20260508143133 17 209 1.6 6.4 0.00 0.00 0.00 51 1015.8
20260508142633 17 350 0.0 6.4 0.00 0.00 0.00 52 1015.8
20260508142413 17 59 0.0 4.8 0.00 0.00 0.00 52 1015.9
20260508141911 17 19 1.6 8.0 0.00 0.00 0.00 52 1015.9
20260508141422 17 34 1.6 8.0 0.00 0.00 0.00 52 1015.9
20260508140700 17 118 1.6 4.8 0.00 0.00 0.00 52 1015.8
20260508140650 17 71 1.6 4.8 0.00 0.00 0.00 51 1015.9
20260508135631 17 42 1.6 6.4 0.00 0.00 0.00 52 1015.9
20260508135131 17 94 0.0 6.4 0.00 0.00 0.00 53 1016.0
20260508134703 17 202 1.6 6.4 0.00 0.00 0.00 53 1016.0
20260508134652 17 103 1.6 6.4 0.00 0.00 0.00 53 1016.0
20260508133631 17 187 1.6 9.7 0.00 0.00 0.00 53 1016.1
20260508133132 17 127 1.6 9.7 0.00 0.00 0.00 53 1016.1
20260508132632 17 106 3.2 14.5 0.00 0.00 0.00 53 1016.1
20260508132133 17 253 3.2 14.5 0.00 0.00 0.00 53 1016.1
20260508131629 18 184 1.6 9.7 0.00 0.00 0.00 52 1016.0
20260508131130 18 177 1.6 9.7 0.00 0.00 0.00 52 1016.0
20260508130909 18 150 1.6 9.7 0.00 0.00 0.00 52 1016.0
20260508130130 18 246 1.6 9.7 0.00 0.00 0.00 52 1015.9
20260508125628 18 152 1.6 8.0 0.00 0.00 0.00 52 1015.9
20260508125125 18 101 1.6 8.0 0.00 0.00 0.00 52 1015.9
20260508124626 18 238 1.6 9.7 0.00 0.00 0.00 52 1016.0
20260508124125 18 88 1.6 9.7 0.00 0.00 0.00 52 1016.1
20260508123627 18 97 3.2 6.4 0.00 0.00 0.00 51 1016.1
20260508123126 18 218 3.2 8.0 0.00 0.00 0.00 50 1016.1
20260508122624 18 98 1.6 8.0 0.00 0.00 0.00 51 1016.1
20260508122125 18 119 1.6 11.3 0.00 0.00 0.00 51 1016.1
20260508121625 18 35 3.2 11.3 0.00 0.00 0.00 51 1016.1
20260508121126 18 115 3.2 9.7 0.00 0.00 0.00 51 1016.0
20260508120624 18 330 3.2 8.0 0.00 0.00 0.00 51 1016.1
20260508120125 18 115 3.2 8.0 0.00 0.00 0.00 51 1016.1
20260508115626 19 188 1.6 9.7 0.00 0.00 0.00 50 1016.1
20260508115125 19 155 1.6 9.7 0.00 0.00 0.00 50 1016.1
20260508114628 19 223 1.6 6.4 0.00 0.00 0.00 50 1016.1
20260508114126 19 96 1.6 6.4 0.00 0.00 0.00 49 1016.0
20260508113625 19 0 3.2 6.4 0.00 0.00 0.00 49 1016.1
20260508113125 19 146 1.6 6.4 0.00 0.00 0.00 49 1016.2
20260508112624 19 206 1.6 8.0 0.00 0.00 0.00 48 1016.1
20260508112125 19 250 1.6 8.0 0.00 0.00 0.00 50 1016.1